| time (UTC) | temp F | wind direction | speed MPH | gust MPH | rain 1hr in | rain 24hr in | rain mn in | humidity % | barometer mb |
| 20260904215605 | 81 | 20 | 0.0 | 1.0 | 0.00 | 0.19 | 0.01 | 88 | 1015.0 |
| 20260904214606 | 81 | 322 | 1.0 | 7.0 | 0.00 | 0.19 | 0.01 | 88 | 1015.3 |
| 20260904214105 | 82 | 332 | 2.0 | 6.0 | 0.00 | 0.19 | 0.01 | 89 | 1015.4 |
| 20260904213605 | 82 | 331 | 2.0 | 8.0 | 0.00 | 0.19 | 0.01 | 87 | 1015.2 |
| 20260904213106 | 83 | 325 | 2.0 | 5.0 | 0.00 | 0.19 | 0.01 | 87 | 1015.4 |
| 20260904212606 | 85 | 317 | 2.0 | 6.0 | 0.00 | 0.19 | 0.01 | 85 | 1015.4 |
| 20260904212105 | 86 | 322 | 0.0 | 0.0 | 0.00 | 0.19 | 0.01 | 84 | 1015.2 |
| 20260904211605 | 86 | 322 | 0.0 | 2.0 | 0.00 | 0.19 | 0.01 | 83 | 1015.2 |
| 20260904210606 | 87 | 301 | 0.0 | 3.0 | 0.00 | 0.19 | 0.01 | 83 | 1014.9 |
| 20260904210109 | 87 | 329 | 1.0 | 3.0 | 0.00 | 0.19 | 0.01 | 82 | 1014.6 |
| 20260904205605 | 88 | 178 | 0.0 | 0.0 | 0.00 | 0.19 | 0.01 | 83 | 1014.6 |
| 20260904205105 | 87 | 178 | 0.0 | 0.0 | 0.00 | 0.19 | 0.01 | 82 | 1014.6 |
| 20260904204605 | 87 | 178 | 0.0 | 0.0 | 0.00 | 0.19 | 0.01 | 84 | 1014.6 |
| 20260904203605 | 87 | 178 | 0.0 | 0.0 | 0.00 | 0.19 | 0.01 | 85 | 1014.7 |
| 20260904203105 | 86 | 178 | 0.0 | 0.0 | 0.00 | 0.19 | 0.01 | 84 | 1014.9 |
| 20260904202605 | 86 | 178 | 0.0 | 0.0 | 0.00 | 0.19 | 0.01 | 85 | 1014.9 |
| 20260904202105 | 86 | 180 | 0.0 | 0.0 | 0.00 | 0.20 | 0.01 | 84 | 1014.9 |
| 20260904201605 | 86 | 180 | 0.0 | 0.0 | 0.00 | 0.24 | 0.01 | 83 | 1014.8 |
| 20260904201105 | 86 | 180 | 0.0 | 3.0 | 0.00 | 0.27 | 0.01 | 84 | 1014.7 |
| 20260904200109 | 86 | 168 | 0.0 | 2.0 | 0.00 | 0.28 | 0.01 | 83 | 1015.0 |
| 20260904195605 | 86 | 150 | 0.0 | 1.0 | 0.00 | 0.30 | 0.01 | 83 | 1015.0 |
| 20260904195105 | 86 | 156 | 0.0 | 1.0 | 0.00 | 0.30 | 0.01 | 83 | 1015.0 |
| 20260904194105 | 86 | 175 | 0.0 | 2.0 | 0.00 | 0.30 | 0.01 | 83 | 1015.3 |
| 20260904193605 | 86 | 167 | 0.0 | 1.0 | 0.00 | 0.30 | 0.01 | 83 | 1015.3 |
| 20260904192605 | 86 | 169 | 1.0 | 5.0 | 0.00 | 0.30 | 0.01 | 81 | 1015.2 |
| 20260904192105 | 87 | 158 | 1.0 | 7.0 | 0.00 | 0.30 | 0.01 | 81 | 1015.3 |
| 20260904191605 | 88 | 164 | 3.0 | 9.0 | 0.00 | 0.30 | 0.01 | 79 | 1015.4 |
| 20260904191105 | 89 | 138 | 3.0 | 8.0 | 0.00 | 0.30 | 0.01 | 77 | 1015.4 |
| 20260904190605 | 90 | 171 | 3.0 | 8.0 | 0.00 | 0.30 | 0.01 | 74 | 1015.5 |
| 20260904190109 | 91 | 150 | 1.0 | 6.0 | 0.00 | 0.30 | 0.01 | 72 | 1015.5 |
| 20260904185605 | 90 | 157 | 2.0 | 5.0 | 0.00 | 0.30 | 0.01 | 73 | 1015.4 |
| 20260904185105 | 90 | 156 | 1.0 | 5.0 | 0.00 | 0.30 | 0.01 | 72 | 1015.6 |
| 20260904184605 | 91 | 161 | 1.0 | 3.0 | 0.00 | 0.30 | 0.01 | 74 | 1015.6 |
| 20260904184105 | 91 | 159 | 1.0 | 5.0 | 0.00 | 0.30 | 0.01 | 72 | 1015.6 |
| 20260904183605 | 92 | 176 | 0.0 | 3.0 | 0.00 | 0.30 | 0.01 | 74 | 1015.6 |
| 20260904183105 | 92 | 177 | 1.0 | 6.0 | 0.00 | 0.30 | 0.01 | 75 | 1015.6 |
| 20260904182605 | 92 | 153 | 0.0 | 2.0 | 0.00 | 0.30 | 0.01 | 73 | 1015.7 |
| 20260904182105 | 92 | 161 | 0.0 | 3.0 | 0.00 | 0.30 | 0.01 | 74 | 1015.9 |
| 20260904181605 | 91 | 175 | 0.0 | 1.0 | 0.00 | 0.30 | 0.01 | 75 | 1016.0 |
| 20260904180605 | 92 | 194 | 0.0 | 0.0 | 0.00 | 0.30 | 0.01 | 71 | 1016.1 |
| 20260904180109 | 91 | 154 | 0.0 | 1.0 | 0.00 | 0.30 | 0.01 | 74 | 1016.2 |
| 20260904175605 | 90 | 161 | 0.0 | 1.0 | 0.00 | 0.40 | 0.01 | 75 | 1016.2 |
| 20260904175105 | 89 | 167 | 0.0 | 1.0 | 0.00 | 0.41 | 0.01 | 76 | 1016.3 |
| 20260904174605 | 88 | 314 | 0.0 | 0.0 | 0.00 | 0.41 | 0.01 | 79 | 1016.4 |
| 20260904174105 | 88 | 314 | 0.0 | 1.0 | 0.00 | 0.41 | 0.01 | 77 | 1016.5 |
| 20260904173605 | 89 | 317 | 1.0 | 3.0 | 0.00 | 0.41 | 0.01 | 77 | 1016.5 |
| 20260904173105 | 89 | 221 | 0.0 | 0.0 | 0.00 | 0.41 | 0.01 | 79 | 1016.6 |
| 20260904171605 | 90 | 322 | 0.0 | 1.0 | 0.00 | 0.41 | 0.01 | 75 | 1016.7 |
| 20260904171105 | 89 | 147 | 0.0 | 1.0 | 0.00 | 0.41 | 0.01 | 79 | 1016.6 |
| 20260904170605 | 90 | 143 | 0.0 | 0.0 | 0.00 | 0.41 | 0.01 | 78 | 1016.7 |
| 20260904170109 | 90 | 143 | 0.0 | 0.0 | 0.00 | 0.41 | 0.01 | 78 | 1016.8 |
| 20260904165604 | 89 | 135 | 0.0 | 1.0 | 0.00 | 0.41 | 0.01 | 78 | 1016.8 |
| 20260904165105 | 89 | 151 | 0.0 | 0.0 | 0.00 | 0.41 | 0.01 | 78 | 1016.9 |
| 20260904164105 | 90 | 151 | 0.0 | 1.0 | 0.00 | 0.41 | 0.01 | 81 | 1017.1 |
| 20260904163106 | 89 | 169 | 0.0 | 1.0 | 0.00 | 0.41 | 0.01 | 79 | 1017.3 |
| 20260904162605 | 89 | 170 | 0.0 | 2.0 | 0.00 | 0.41 | 0.01 | 77 | 1017.3 |
| 20260904162104 | 89 | 169 | 1.0 | 5.0 | 0.00 | 0.41 | 0.01 | 79 | 1017.4 |
| 20260904161604 | 88 | 151 | 0.0 | 0.0 | 0.00 | 0.41 | 0.01 | 80 | 1017.4 |
| 20260904161105 | 89 | 212 | 0.0 | 1.0 | 0.00 | 0.41 | 0.01 | 80 | 1017.5 |
| 20260904160604 | 89 | 174 | 0.0 | 0.0 | 0.00 | 0.41 | 0.01 | 80 | 1017.4 |
| 20260904160108 | 88 | 174 | 0.0 | 1.0 | 0.00 | 0.41 | 0.01 | 80 | 1017.5 |
| 20260904155605 | 88 | 203 | 0.0 | 2.0 | 0.00 | 0.41 | 0.01 | 80 | 1017.5 |
| 20260904154605 | 87 | 167 | 0.0 | 1.0 | 0.00 | 0.41 | 0.01 | 82 | 1017.6 |
| 20260904154104 | 87 | 164 | 1.0 | 3.0 | 0.00 | 0.41 | 0.01 | 81 | 1017.6 |
| 20260904153606 | 87 | 161 | 0.0 | 3.0 | 0.00 | 0.41 | 0.01 | 82 | 1017.7 |
| 20260904153105 | 87 | 199 | 0.0 | 1.0 | 0.00 | 0.41 | 0.01 | 82 | 1017.6 |
| 20260904152604 | 87 | 161 | 0.0 | 2.0 | 0.00 | 0.41 | 0.01 | 81 | 1017.5 |
| 20260904152105 | 88 | 147 | 1.0 | 3.0 | 0.00 | 0.41 | 0.01 | 83 | 1017.4 |
| 20260904151604 | 87 | 168 | 0.0 | 2.0 | 0.00 | 0.41 | 0.01 | 84 | 1017.3 |
| 20260904151104 | 87 | 165 | 1.0 | 2.0 | 0.00 | 0.41 | 0.01 | 83 | 1017.3 |
| 20260904150605 | 87 | 72 | 0.0 | 1.0 | 0.00 | 0.41 | 0.01 | 84 | 1017.2 |
| 20260904150108 | 87 | 172 | 0.0 | 3.0 | 0.00 | 0.41 | 0.01 | 84 | 1017.1 |
| 20260904145604 | 87 | 148 | 0.0 | 2.0 | 0.00 | 0.41 | 0.01 | 84 | 1017.1 |
| 20260904145105 | 87 | 165 | 0.0 | 2.0 | 0.00 | 0.41 | 0.01 | 85 | 1017.2 |
| 20260904144604 | 86 | 163 | 0.0 | 0.0 | 0.00 | 0.41 | 0.01 | 87 | 1017.2 |
| 20260904144104 | 85 | 163 | 0.0 | 2.0 | 0.00 | 0.41 | 0.01 | 87 | 1017.2 |
| 20260904143105 | 84 | 163 | 1.0 | 3.0 | 0.00 | 0.41 | 0.01 | 89 | 1017.2 |
| 20260904142604 | 83 | 202 | 1.0 | 3.0 | 0.00 | 0.41 | 0.01 | 90 | 1017.3 |
| 20260904142105 | 83 | 166 | 1.0 | 3.0 | 0.00 | 0.41 | 0.01 | 91 | 1017.3 |
| 20260904141605 | 82 | 167 | 0.0 | 3.0 | 0.00 | 0.41 | 0.01 | 93 | 1017.2 |
| 20260904141104 | 81 | 175 | 1.0 | 3.0 | 0.00 | 0.41 | 0.01 | 94 | 1017.2 |
| 20260904140605 | 81 | 175 | 1.0 | 5.0 | 0.00 | 0.41 | 0.01 | 95 | 1017.1 |
| 20260904140109 | 81 | 174 | 1.0 | 6.0 | 0.00 | 0.41 | 0.01 | 95 | 1017.0 |
| 20260904135604 | 80 | 160 | 2.0 | 7.0 | 0.00 | 0.41 | 0.01 | 96 | 1017.0 |
| 20260904134104 | 79 | 100 | 2.0 | 3.0 | 0.00 | 0.41 | 0.01 | 96 | 1016.9 |
| 20260904133104 | 79 | 195 | 1.0 | 3.0 | 0.00 | 0.41 | 0.01 | 96 | 1017.0 |
| 20260904132605 | 78 | 196 | 1.0 | 2.0 | 0.00 | 0.41 | 0.01 | 96 | 1017.1 |
| 20260904131604 | 78 | 196 | 1.0 | 2.0 | 0.00 | 0.41 | 0.01 | 96 | 1017.1 |
| 20260904131104 | 78 | 211 | 0.0 | 0.0 | 0.00 | 0.41 | 0.01 | 96 | 1017.1 |
| 20260904130604 | 77 | 211 | 0.0 | 1.0 | 0.00 | 0.41 | 0.01 | 96 | 1017.1 |
| 20260904130109 | 77 | 211 | 1.0 | 3.0 | 0.00 | 0.41 | 0.01 | 96 | 1017.0 |
| 20260904125605 | 77 | 211 | 1.0 | 2.0 | 0.00 | 0.41 | 0.01 | 96 | 1016.9 |
| 20260904125104 | 77 | 211 | 0.0 | 0.0 | 0.00 | 0.41 | 0.01 | 96 | 1016.8 |
| 20260904124604 | 77 | 211 | 0.0 | 1.0 | 0.00 | 0.41 | 0.01 | 96 | 1016.9 |
| 20260904124105 | 77 | 212 | 0.0 | 1.0 | 0.00 | 0.41 | 0.01 | 96 | 1016.8 |
| 20260904123604 | 77 | 212 | 0.0 | 1.0 | 0.00 | 0.41 | 0.01 | 96 | 1016.7 |
| 20260904123104 | 76 | 212 | 0.0 | 2.0 | 0.01 | 0.41 | 0.01 | 96 | 1016.6 |
| 20260904122604 | 76 | 212 | 0.0 | 2.0 | 0.01 | 0.41 | 0.01 | 96 | 1016.6 |
| 20260904122105 | 76 | 215 | 1.0 | 2.0 | 0.01 | 0.41 | 0.01 | 96 | 1016.6 |
| 20260904121605 | 75 | 159 | 1.0 | 3.0 | 0.01 | 0.41 | 0.01 | 96 | 1016.5 |
| 20260904121104 | 75 | 159 | 0.0 | 1.0 | 0.01 | 0.41 | 0.01 | 96 | 1016.5 |
| 20260904120604 | 75 | 159 | 0.0 | 0.0 | 0.01 | 0.41 | 0.01 | 96 | 1016.5 |
| 20260904120109 | 75 | 159 | 0.0 | 0.0 | 0.01 | 0.41 | 0.01 | 96 | 1016.5 |
| 20260904115604 | 75 | 159 | 0.0 | 0.0 | 0.01 | 0.41 | 0.01 | 96 | 1016.4 |
| 20260904115104 | 75 | 159 | 0.0 | 0.0 | 0.01 | 0.41 | 0.01 | 95 | 1016.4 |
| 20260904114604 | 75 | 159 | 0.0 | 0.0 | 0.01 | 0.41 | 0.01 | 95 | 1016.4 |
| 20260904114105 | 75 | 159 | 0.0 | 0.0 | 0.01 | 0.41 | 0.01 | 95 | 1016.3 |
| 20260904113604 | 75 | 158 | 0.0 | 0.0 | 0.01 | 0.41 | 0.01 | 95 | 1016.3 |
| 20260904113104 | 75 | 170 | 0.0 | 0.0 | 0.00 | 0.40 | 0.00 | 95 | 1016.3 |
| 20260904112604 | 75 | 170 | 0.0 | 0.0 | 0.00 | 0.40 | 0.00 | 95 | 1016.1 |
| 20260904112104 | 75 | 170 | 0.0 | 0.0 | 0.00 | 0.40 | 0.00 | 95 | 1016.1 |
| 20260904111604 | 74 | 170 | 0.0 | 0.0 | 0.00 | 0.40 | 0.00 | 95 | 1016.0 |
| 20260904111104 | 74 | 170 | 0.0 | 0.0 | 0.00 | 0.40 | 0.00 | 95 | 1016.1 |
| 20260904110109 | 74 | 170 | 0.0 | 0.0 | 0.00 | 0.40 | 0.00 | 95 | 1015.8 |
| 20260904105604 | 74 | 170 | 0.0 | 0.0 | 0.00 | 0.40 | 0.00 | 95 | 1015.9 |
| 20260904105104 | 74 | 170 | 0.0 | 0.0 | 0.00 | 0.40 | 0.00 | 95 | 1015.9 |
| 20260904104604 | 74 | 170 | 0.0 | 0.0 | 0.00 | 0.40 | 0.00 | 95 | 1015.8 |
| 20260904103605 | 74 | 170 | 0.0 | 0.0 | 0.00 | 0.40 | 0.00 | 95 | 1015.7 |
| 20260904103104 | 75 | 170 | 0.0 | 0.0 | 0.00 | 0.40 | 0.00 | 95 | 1015.7 |
| 20260904102104 | 75 | 170 | 0.0 | 0.0 | 0.00 | 0.40 | 0.00 | 95 | 1015.6 |
| 20260904101104 | 75 | 170 | 0.0 | 0.0 | 0.00 | 0.40 | 0.00 | 95 | 1015.5 |
| 20260904100604 | 75 | 170 | 0.0 | 0.0 | 0.00 | 0.40 | 0.00 | 95 | 1015.5 |
| 20260904100108 | 75 | 170 | 0.0 | 0.0 | 0.00 | 0.40 | 0.00 | 95 | 1015.4 |
| 20260904095604 | 75 | 170 | 0.0 | 0.0 | 0.00 | 0.40 | 0.00 | 95 | 1015.4 |
| 20260904095105 | 75 | 170 | 0.0 | 0.0 | 0.00 | 0.40 | 0.00 | 95 | 1015.4 |
| 20260904094604 | 75 | 170 | 0.0 | 0.0 | 0.00 | 0.40 | 0.00 | 95 | 1015.3 |
| 20260904094104 | 75 | 170 | 0.0 | 0.0 | 0.00 | 0.40 | 0.00 | 95 | 1015.3 |
| 20260904093604 | 75 | 170 | 0.0 | 0.0 | 0.00 | 0.40 | 0.00 | 95 | 1015.3 |
| 20260904093104 | 75 | 170 | 0.0 | 0.0 | 0.00 | 0.40 | 0.00 | 95 | 1015.3 |
| 20260904092104 | 75 | 170 | 0.0 | 0.0 | 0.00 | 0.41 | 0.00 | 95 | 1015.2 |
| 20260904091604 | 75 | 170 | 0.0 | 0.0 | 0.00 | 0.41 | 0.00 | 95 | 1015.2 |
| 20260904091104 | 75 | 170 | 0.0 | 0.0 | 0.00 | 0.41 | 0.00 | 95 | 1015.3 |
| 20260904090604 | 75 | 170 | 0.0 | 0.0 | 0.00 | 0.41 | 0.00 | 95 | 1015.2 |
| 20260904090108 | 75 | 170 | 0.0 | 0.0 | 0.00 | 0.41 | 0.00 | 95 | 1015.1 |
| 20260904085604 | 75 | 170 | 0.0 | 0.0 | 0.00 | 0.41 | 0.00 | 95 | 1015.1 |
| 20260904085104 | 75 | 170 | 0.0 | 0.0 | 0.00 | 0.41 | 0.00 | 95 | 1015.2 |
| 20260904084604 | 75 | 170 | 0.0 | 0.0 | 0.00 | 0.41 | 0.00 | 95 | 1015.1 |
| 20260904084104 | 75 | 170 | 0.0 | 0.0 | 0.00 | 0.41 | 0.00 | 95 | 1015.0 |
| 20260904083604 | 75 | 170 | 0.0 | 0.0 | 0.00 | 0.41 | 0.00 | 95 | 1015.0 |
| 20260904083104 | 75 | 170 | 0.0 | 0.0 | 0.00 | 0.41 | 0.00 | 95 | 1015.1 |
| 20260904082604 | 75 | 170 | 0.0 | 0.0 | 0.00 | 0.41 | 0.00 | 95 | 1015.1 |
| 20260904082104 | 75 | 170 | 0.0 | 0.0 | 0.00 | 0.41 | 0.00 | 95 | 1015.0 |
| 20260904081604 | 75 | 170 | 0.0 | 0.0 | 0.00 | 0.41 | 0.00 | 95 | 1015.1 |
| 20260904081104 | 75 | 170 | 0.0 | 0.0 | 0.00 | 0.41 | 0.00 | 95 | 1015.2 |
| 20260904080108 | 75 | 170 | 0.0 | 0.0 | 0.00 | 0.41 | 0.00 | 95 | 1015.4 |
| 20260904075604 | 75 | 170 | 0.0 | 0.0 | 0.00 | 0.41 | 0.00 | 95 | 1015.3 |
| 20260904075104 | 75 | 170 | 0.0 | 0.0 | 0.00 | 0.41 | 0.00 | 95 | 1015.3 |
| 20260904074604 | 75 | 170 | 0.0 | 0.0 | 0.00 | 0.41 | 0.00 | 95 | 1015.2 |
| 20260904074104 | 75 | 170 | 0.0 | 0.0 | 0.00 | 0.41 | 0.00 | 95 | 1015.2 |
| 20260904073604 | 75 | 170 | 0.0 | 0.0 | 0.00 | 0.41 | 0.00 | 95 | 1015.1 |
| 20260904073104 | 75 | 170 | 0.0 | 0.0 | 0.00 | 0.41 | 0.00 | 95 | 1015.1 |
| 20260904072604 | 75 | 170 | 0.0 | 0.0 | 0.00 | 0.41 | 0.00 | 95 | 1015.0 |
| 20260904072104 | 75 | 170 | 0.0 | 0.0 | 0.00 | 0.41 | 0.00 | 95 | 1015.0 |
| 20260904071604 | 75 | 170 | 0.0 | 0.0 | 0.00 | 0.41 | 0.00 | 95 | 1015.0 |
| 20260904070604 | 75 | 170 | 0.0 | 0.0 | 0.00 | 0.41 | 0.00 | 95 | 1015.1 |
| 20260904070107 | 75 | 170 | 0.0 | 0.0 | 0.00 | 0.41 | 0.00 | 95 | 1014.9 |
| 20260904065604 | 75 | 170 | 0.0 | 0.0 | 0.00 | 0.41 | 0.00 | 95 | 1015.0 |
| 20260904065104 | 75 | 170 | 0.0 | 0.0 | 0.00 | 0.41 | 0.00 | 95 | 1015.1 |
| 20260904064603 | 75 | 170 | 0.0 | 0.0 | 0.00 | 0.41 | 0.00 | 95 | 1015.2 |
| 20260904064104 | 75 | 170 | 0.0 | 0.0 | 0.00 | 0.41 | 0.00 | 95 | 1015.1 |
| 20260904063604 | 75 | 170 | 0.0 | 0.0 | 0.00 | 0.41 | 0.00 | 95 | 1015.2 |
| 20260904063104 | 75 | 170 | 0.0 | 0.0 | 0.00 | 0.41 | 0.00 | 95 | 1015.2 |
| 20260904062604 | 75 | 170 | 0.0 | 0.0 | 0.00 | 0.41 | 0.00 | 95 | 1015.2 |
| 20260904061604 | 75 | 170 | 0.0 | 0.0 | 0.00 | 0.41 | 0.00 | 95 | 1015.3 |
| 20260904061103 | 75 | 170 | 0.0 | 0.0 | 0.00 | 0.41 | 0.00 | 95 | 1015.4 |
| 20260904060604 | 75 | 170 | 0.0 | 0.0 | 0.00 | 0.41 | 0.00 | 95 | 1015.4 |
| 20260904060108 | 75 | 170 | 0.0 | 0.0 | 0.00 | 0.41 | 0.00 | 95 | 1015.5 |
| 20260904055604 | 75 | 170 | 0.0 | 0.0 | 0.00 | 0.41 | 0.00 | 95 | 1015.7 |
| 20260904055104 | 75 | 170 | 0.0 | 0.0 | 0.00 | 0.41 | 0.00 | 95 | 1015.7 |
| 20260904054604 | 75 | 170 | 0.0 | 0.0 | 0.00 | 0.41 | 0.00 | 95 | 1015.7 |
| 20260904054103 | 75 | 170 | 0.0 | 0.0 | 0.00 | 0.41 | 0.00 | 95 | 1015.7 |
| 20260904053104 | 75 | 170 | 0.0 | 0.0 | 0.00 | 0.41 | 0.00 | 95 | 1015.7 |
| 20260904052603 | 75 | 170 | 0.0 | 0.0 | 0.00 | 0.41 | 0.00 | 95 | 1015.7 |
| 20260904052103 | 75 | 170 | 0.0 | 0.0 | 0.00 | 0.41 | 0.00 | 95 | 1015.7 |
| 20260904051604 | 75 | 170 | 0.0 | 0.0 | 0.00 | 0.41 | 0.00 | 95 | 1015.7 |
| 20260904050605 | 76 | 170 | 0.0 | 13.0 | 0.00 | 0.41 | 0.00 | 95 | 1015.9 |
| 20260904050110 | 76 | 170 | 0.0 | 0.0 | 0.00 | 0.41 | 0.00 | 95 | 1016.0 |
| 20260904045605 | 76 | 170 | 0.0 | 0.0 | 0.00 | 0.41 | 0.00 | 95 | 1015.9 |
| 20260904045106 | 76 | 170 | 0.0 | 0.0 | 0.00 | 0.41 | 0.00 | 95 | 1015.9 |
| 20260904044606 | 76 | 170 | 0.0 | 0.0 | 0.00 | 0.41 | 0.00 | 95 | 1015.8 |
| 20260904043606 | 76 | 170 | 0.0 | 0.0 | 0.00 | 0.41 | 0.00 | 95 | 1015.8 |
| 20260904043106 | 76 | 170 | 0.0 | 0.0 | 0.00 | 0.41 | 0.00 | 95 | 1015.9 |
| 20260904042105 | 76 | 170 | 0.0 | 0.0 | 0.00 | 0.41 | 0.00 | 95 | 1015.9 |
| 20260904041606 | 76 | 170 | 0.0 | 0.0 | 0.00 | 0.41 | 0.00 | 95 | 1016.0 |
| 20260904041106 | 76 | 170 | 0.0 | 0.0 | 0.00 | 0.41 | 0.00 | 95 | 1015.9 |
| 20260904040606 | 76 | 170 | 0.0 | 0.0 | 0.00 | 0.41 | 0.00 | 95 | 1015.9 |
| 20260904040110 | 76 | 170 | 0.0 | 0.0 | 0.00 | 0.41 | 0.00 | 95 | 1016.0 |
| 20260904035106 | 76 | 170 | 0.0 | 0.0 | 0.00 | 0.41 | 0.41 | 95 | 1016.0 |
| 20260904034606 | 76 | 170 | 0.0 | 0.0 | 0.00 | 0.41 | 0.41 | 95 | 1016.0 |
| 20260904034105 | 76 | 170 | 0.0 | 0.0 | 0.00 | 0.41 | 0.41 | 95 | 1016.0 |
| 20260904033606 | 76 | 170 | 0.0 | 0.0 | 0.00 | 0.41 | 0.41 | 95 | 1016.0 |
| 20260904033106 | 76 | 170 | 0.0 | 0.0 | 0.00 | 0.41 | 0.41 | 95 | 1016.0 |
| 20260904032105 | 76 | 170 | 0.0 | 0.0 | 0.00 | 0.41 | 0.41 | 95 | 1016.1 |
| 20260904031606 | 76 | 170 | 0.0 | 0.0 | 0.00 | 0.41 | 0.41 | 94 | 1016.1 |
| 20260904031106 | 76 | 170 | 0.0 | 0.0 | 0.00 | 0.41 | 0.41 | 95 | 1016.2 |
| 20260904030606 | 76 | 170 | 0.0 | 0.0 | 0.00 | 0.41 | 0.41 | 94 | 1016.1 |
| 20260904030110 | 76 | 170 | 0.0 | 0.0 | 0.00 | 0.41 | 0.41 | 94 | 1016.2 |
| 20260904025605 | 76 | 170 | 0.0 | 0.0 | 0.00 | 0.41 | 0.41 | 94 | 1016.2 |
| 20260904025106 | 76 | 170 | 0.0 | 0.0 | 0.00 | 0.41 | 0.41 | 94 | 1016.1 |
| 20260904024606 | 76 | 170 | 0.0 | 0.0 | 0.00 | 0.41 | 0.41 | 94 | 1016.1 |
| 20260904024106 | 76 | 170 | 0.0 | 0.0 | 0.00 | 0.41 | 0.41 | 94 | 1016.0 |
| 20260904023606 | 76 | 170 | 0.0 | 0.0 | 0.00 | 0.41 | 0.41 | 94 | 1016.0 |
| 20260904023106 | 76 | 170 | 0.0 | 0.0 | 0.00 | 0.41 | 0.41 | 94 | 1015.9 |
| 20260904022105 | 76 | 170 | 0.0 | 0.0 | 0.01 | 0.41 | 0.41 | 94 | 1015.8 |
| 20260904021606 | 76 | 170 | 0.0 | 0.0 | 0.01 | 0.41 | 0.41 | 94 | 1015.6 |
| 20260904021106 | 76 | 170 | 0.0 | 0.0 | 0.01 | 0.41 | 0.41 | 94 | 1015.6 |
| 20260904020605 | 76 | 170 | 0.0 | 0.0 | 0.01 | 0.41 | 0.41 | 94 | 1015.6 |
| 20260904020110 | 76 | 170 | 0.0 | 0.0 | 0.02 | 0.41 | 0.41 | 94 | 1015.6 |
| 20260904015606 | 76 | 170 | 0.0 | 0.0 | 0.02 | 0.41 | 0.41 | 94 | 1015.5 |
| 20260904015106 | 76 | 170 | 0.0 | 0.0 | 0.03 | 0.42 | 0.41 | 94 | 1015.5 |
| 20260904014605 | 76 | 170 | 0.0 | 0.0 | 0.04 | 0.42 | 0.41 | 94 | 1015.5 |
| 20260904014106 | 76 | 170 | 0.0 | 0.0 | 0.05 | 0.42 | 0.41 | 94 | 1015.6 |
| 20260904013606 | 76 | 170 | 0.0 | 0.0 | 0.06 | 0.42 | 0.41 | 94 | 1015.5 |
| 20260904012606 | 76 | 170 | 0.0 | 0.0 | 0.08 | 0.42 | 0.41 | 94 | 1015.4 |
| 20260904012106 | 76 | 170 | 0.0 | 0.0 | 0.08 | 0.41 | 0.40 | 94 | 1015.4 |
| 20260904011605 | 76 | 170 | 0.0 | 0.0 | 0.10 | 0.41 | 0.40 | 94 | 1015.4 |
| 20260904011106 | 76 | 170 | 0.0 | 0.0 | 0.11 | 0.41 | 0.40 | 94 | 1015.5 |
| 20260904010606 | 76 | 170 | 0.0 | 0.0 | 0.11 | 0.41 | 0.40 | 94 | 1015.5 |
| 20260904010109 | 76 | 170 | 0.0 | 0.0 | 0.10 | 0.40 | 0.39 | 94 | 1015.5 |
| 20260904004605 | 76 | 170 | 0.0 | 0.0 | 0.08 | 0.39 | 0.37 | 94 | 1015.4 |
| 20260904003606 | 76 | 170 | 0.0 | 0.0 | 0.07 | 0.38 | 0.35 | 94 | 1015.1 |
| 20260904003105 | 76 | 170 | 0.0 | 0.0 | 0.06 | 0.37 | 0.34 | 94 | 1015.1 |
| 20260904002106 | 76 | 170 | 0.0 | 0.0 | 0.04 | 0.36 | 0.32 | 94 | 1015.1 |
| 20260904001606 | 76 | 170 | 0.0 | 0.0 | 0.03 | 0.34 | 0.30 | 94 | 1015.1 |
| 20260904001105 | 76 | 170 | 0.0 | 0.0 | 0.03 | 0.33 | 0.29 | 94 | 1015.2 |
| 20260904000605 | 76 | 170 | 0.0 | 0.0 | 0.04 | 0.33 | 0.29 | 93 | 1015.2 |
| 20260904000110 | 76 | 170 | 0.0 | 0.0 | 0.05 | 0.34 | 0.29 | 93 | 1015.2 |
| 20260903235606 | 76 | 170 | 0.0 | 0.0 | 0.06 | 0.34 | 0.29 | 93 | 1015.2 |
| 20260903235105 | 76 | 170 | 0.0 | 0.0 | 0.06 | 0.34 | 0.29 | 93 | 1015.2 |
| 20260903234605 | 76 | 170 | 0.0 | 0.0 | 0.06 | 0.34 | 0.29 | 93 | 1015.2 |
| 20260903234105 | 76 | 170 | 0.0 | 0.0 | 0.06 | 0.35 | 0.29 | 93 | 1015.3 |
| 20260903233605 | 76 | 170 | 0.0 | 1.0 | 0.05 | 0.34 | 0.28 | 93 | 1015.4 |
| 20260903232106 | 76 | 182 | 0.0 | 1.0 | 0.05 | 0.34 | 0.28 | 92 | 1015.6 |
| 20260903231605 | 76 | 295 | 0.0 | 1.0 | 0.04 | 0.33 | 0.27 | 91 | 1015.3 |
| 20260903231105 | 77 | 173 | 0.0 | 3.0 | 0.03 | 0.32 | 0.26 | 91 | 1015.1 |
| 20260903230109 | 78 | 160 | 1.0 | 12.0 | 0.01 | 0.30 | 0.24 | 89 | 1015.5 |
| 20260903225606 | 79 | 161 | 1.0 | 10.0 | 0.00 | 0.29 | 0.23 | 89 | 1015.5 |
| 20260903225106 | 80 | 132 | 1.0 | 8.0 | 0.00 | 0.29 | 0.23 | 89 | 1015.4 |
| 20260903224605 | 81 | 155 | 5.0 | 13.0 | 0.00 | 0.29 | 0.23 | 88 | 1015.1 |
| 20260903224105 | 82 | 106 | 1.0 | 5.0 | 0.00 | 0.29 | 0.23 | 89 | 1014.5 |
| 20260903223605 | 83 | 334 | 0.0 | 0.0 | 0.00 | 0.29 | 0.23 | 89 | 1014.4 |
| 20260903223106 | 83 | 334 | 0.0 | 0.0 | 0.00 | 0.29 | 0.23 | 89 | 1014.5 |
| 20260903222105 | 83 | 334 | 0.0 | 0.0 | 0.00 | 0.29 | 0.23 | 89 | 1014.2 |
| 20260903221606 | 83 | 334 | 0.0 | 0.0 | 0.00 | 0.29 | 0.23 | 88 | 1014.2 |
| 20260903221105 | 84 | 334 | 0.0 | 0.0 | 0.00 | 0.29 | 0.23 | 89 | 1014.3 |
| 20260903220605 | 84 | 334 | 0.0 | 0.0 | 0.00 | 0.29 | 0.23 | 88 | 1014.0 |
| 20260903220110 | 84 | 334 | 0.0 | 0.0 | 0.00 | 0.29 | 0.23 | 89 | 1014.1 |